Weather History for KEMV - November, 2011

Change the Weather History Date:

Thursday, November 10, 2011

  Actual Average Record
Temperature  
Mean Temperature 55 °F -  
Max Temperature 68 °F 65 °F 82 °F (1986)
Min Temperature 42 °F 39 °F 28 °F (2004)
Degree Days  
Heating Degree Days 10    
Growing Degree Days 5 (Base 50)    
Moisture  
Dew Point 49 °F    
Average Humidity 89    
Maximum Humidity 100    
Minimum Humidity 60    
Precipitation  
Precipitation 0.03 in - - ()
Sea Level Pressure  
Sea Level Pressure 29.86 in    
Wind  
Wind Speed 2 mph (WNW)    
Max Wind Speed 13 mph    
Max Gust Speed 18 mph    
Visibility 5 miles    
Events Fog , Rain    
Averages and records for this station are not official NWS values.
T = Trace of Precipitation, MM = Missing Value Source: NWS Daily Summary

Daily Weather History Graph

Daily Weather History Graph

Search for Another Location

Airport or City:

Trip Planner

Search our weather history database for the weather conditions in past years. The results will help you decide how hot, cold, wet, or windy it might be!

Date:

Astronomy

Nov. 10, 2011 Rise Set
Actual Time 6:42 AM EST 5:04 PM EST
Civil Twilight 6:15 AM EST 5:32 PM EST
Nautical Twilight 5:44 AM EST 6:03 PM EST
Astronomical Twilight 5:13 AM EST 6:33 PM EST
Moon 4:52 PM EST (11/10) 6:31 AM EST (11/10)
Length of Visible Light 11h 16m
Length of Day
10h 22m
Full, 100% of the Moon is Illuminated
Nov 10
Full
Nov 10
Full
Nov 18
Last Quarter
Nov 25
New
Dec 2
First Quarter

Hourly Weather History & Observations

Time (EST) Temp. Windchill Dew Point Humidity Pressure Visibility Wind Dir Wind Speed Gust Speed Precip Events Conditions
12:15 AM 44.6 °F - 44.6 °F 100% 29.97 in 1.0 mi Calm Calm - N/A   Mist
12:35 AM 44.6 °F - 44.6 °F 100% 29.97 in 10.0 mi Calm Calm - N/A   Clear
12:55 AM 44.6 °F - 44.6 °F 100% 29.97 in 4.0 mi Calm Calm - N/A   Clear
1:15 AM 44.6 °F - 44.6 °F 100% 29.96 in 5.0 mi Calm Calm - N/A   Clear
1:35 AM 44.6 °F - 44.6 °F 100% 29.96 in 1.5 mi Calm Calm - N/A   Mist
1:55 AM 44.6 °F - 44.6 °F 100% 29.95 in 4.0 mi Calm Calm - N/A   Clear
2:15 AM 44.6 °F - 44.6 °F 100% 29.95 in 1.0 mi Calm Calm - N/A   Mostly Cloudy
2:35 AM 44.6 °F - 44.6 °F 100% 29.94 in - Calm Calm - N/A   Overcast
2:55 AM 44.6 °F - 44.6 °F 100% 29.92 in 0.2 mi Calm Calm - N/A Fog Fog
3:15 AM 44.6 °F 43.1 °F 44.6 °F 100% 29.92 in 0.2 mi East 3.5 mph - N/A Fog Fog
3:35 AM 46.4 °F - 46.4 °F 100% 29.92 in 0.2 mi Calm Calm - N/A Fog Fog
3:55 AM 46.4 °F - 46.4 °F 100% 29.92 in 0.2 mi Calm Calm - N/A Fog Fog
4:15 AM 44.6 °F - 44.6 °F 100% 29.92 in 0.5 mi Calm Calm - N/A Fog Fog
4:35 AM 44.6 °F - 44.6 °F 100% 29.92 in 0.2 mi Calm Calm - N/A Fog Fog
4:55 AM 44.6 °F - 44.6 °F 100% 29.91 in 0.2 mi Calm Calm - N/A Fog Fog
5:15 AM 44.6 °F - 44.6 °F 100% 29.91 in 0.2 mi Calm Calm - N/A Fog Fog
5:35 AM 42.8 °F - 42.8 °F 100% 29.90 in 0.5 mi Calm Calm - N/A Fog Fog
5:55 AM 42.8 °F - 42.8 °F 100% 29.89 in 0.5 mi Calm Calm - N/A Fog Fog
6:15 AM 42.8 °F - 42.8 °F 100% 29.89 in 0.2 mi Calm Calm - N/A Fog Fog
6:35 AM 42.8 °F - 42.8 °F 100% 29.89 in 0.2 mi Calm Calm - 0.01 in Fog Fog
6:55 AM 44.6 °F - 44.6 °F 100% 29.89 in 0.2 mi Calm Calm - 0.01 in Fog Fog
7:15 AM 44.6 °F - 44.6 °F 100% 29.90 in 0.2 mi Calm Calm - N/A Fog Fog
7:35 AM 44.6 °F - 44.6 °F 100% 29.90 in 0.2 mi Calm Calm - N/A Fog Fog
7:55 AM 44.6 °F - 44.6 °F 100% 29.90 in 0.2 mi Calm Calm - N/A Fog Fog
8:15 AM 46.4 °F - 46.4 °F 100% 29.90 in 0.2 mi Calm Calm - N/A Fog Fog
8:35 AM 46.4 °F - 46.4 °F 100% 29.89 in 0.2 mi Calm Calm - N/A Fog Fog
8:55 AM 48.2 °F - 48.2 °F 100% 29.89 in - Calm Calm - N/A   Overcast
9:35 AM 51.8 °F - 51.8 °F 100% 29.89 in 0.5 mi Calm Calm - N/A Fog Fog
9:55 AM 51.8 °F - 51.8 °F 100% 29.88 in 2.0 mi Calm Calm - N/A   Overcast
10:15 AM 55.4 °F - 55.4 °F 100% 29.88 in 4.0 mi Calm Calm - N/A   Scattered Clouds
10:35 AM 60.8 °F - 57.2 °F 88% 29.87 in 4.0 mi Calm Calm - N/A   Clear
10:55 AM 62.6 °F - 59.0 °F 88% 29.86 in 10.0 mi Calm Calm - N/A   Clear
11:15 AM 64.4 °F - 57.2 °F 77% 29.85 in 10.0 mi Calm Calm - N/A   Clear
11:35 AM 66.2 °F - 53.6 °F 64% 29.84 in 10.0 mi Calm Calm - N/A   Clear
11:55 AM 68.0 °F - 53.6 °F 60% 29.83 in 10.0 mi SSW 6.9 mph - N/A   Clear
12:15 PM 68.0 °F - 53.6 °F 60% 29.82 in 10.0 mi SSW 5.8 mph - N/A   Scattered Clouds
12:35 PM 68.0 °F - 55.4 °F 64% 29.80 in 10.0 mi WSW 3.5 mph - N/A   Scattered Clouds
12:55 PM 68.0 °F - 53.6 °F 60% 29.79 in - West 3.5 mph - N/A   Mostly Cloudy
1:15 PM 68.0 °F - 53.6 °F 60% 29.78 in 10.0 mi SW 3.5 mph - N/A   Scattered Clouds
1:35 PM 68.0 °F - 53.6 °F 60% 29.77 in 10.0 mi WNW 6.9 mph - N/A   Scattered Clouds
1:55 PM 68.0 °F - 53.6 °F 60% 29.76 in 10.0 mi NW 6.9 mph - N/A   Scattered Clouds
2:15 PM 66.2 °F - 53.6 °F 64% 29.77 in 10.0 mi NW 10.4 mph - N/A   Scattered Clouds
2:35 PM 64.4 °F - 51.8 °F 64% 29.76 in 10.0 mi WNW 6.9 mph - N/A   Mostly Cloudy
2:55 PM 64.4 °F - 51.8 °F 64% 29.77 in 10.0 mi WNW 10.4 mph 16.1 mph N/A   Mostly Cloudy
3:15 PM 62.6 °F - 50.0 °F 63% 29.77 in 10.0 mi WNW 9.2 mph 16.1 mph N/A   Mostly Cloudy
3:35 PM 60.8 °F - 50.0 °F 68% 29.78 in 10.0 mi West 12.7 mph - N/A   Mostly Cloudy
3:55 PM 60.8 °F - 50.0 °F 68% 29.78 in 10.0 mi West 6.9 mph - N/A   Mostly Cloudy
4:15 PM 59.0 °F - 50.0 °F 72% 29.78 in 10.0 mi WNW 9.2 mph 18.4 mph N/A   Overcast
4:35 PM 55.4 °F - 51.8 °F 88% 29.79 in 7.0 mi West 10.4 mph 16.1 mph N/A   Unknown
4:55 PM 53.6 °F - 51.8 °F 94% 29.79 in 10.0 mi West 9.2 mph - N/A   Drizzle
5:15 PM 53.6 °F - 51.8 °F 94% 29.79 in 10.0 mi WNW 10.4 mph - N/A   Unknown
5:35 PM 53.6 °F - 51.8 °F 94% 29.79 in 7.0 mi WNW 8.1 mph - N/A Rain Rain
5:55 PM 53.6 °F - 51.8 °F 94% 29.81 in 10.0 mi WNW 12.7 mph - N/A   Overcast
6:15 PM 53.6 °F - 51.8 °F 94% 29.83 in 7.0 mi WNW 8.1 mph - N/A Rain Rain
6:35 PM 51.8 °F - 51.8 °F 100% 29.82 in 5.0 mi WNW 8.1 mph 16.1 mph 0.02 in Rain Heavy Rain
6:55 PM 51.8 °F - 50.0 °F 94% 29.83 in 5.0 mi WNW 6.9 mph - 0.02 in   Light Drizzle
7:15 PM 51.8 °F - 50.0 °F 94% 29.82 in 10.0 mi NW 5.8 mph - N/A   Drizzle
7:35 PM 48.2 °F - 46.4 °F 93% 29.83 in 7.0 mi North 9.2 mph - N/A   Overcast
7:55 PM 46.4 °F 41.9 °F 44.6 °F 93% 29.84 in 10.0 mi NNW 9.2 mph 18.4 mph N/A   Overcast
8:15 PM 46.4 °F 41.1 °F 44.6 °F 93% 29.84 in 10.0 mi NNW 11.5 mph 16.1 mph N/A   Overcast
8:35 PM 46.4 °F 42.4 °F 44.6 °F 93% 29.84 in 10.0 mi NNW 8.1 mph - N/A   Overcast
8:55 PM 44.6 °F 40.7 °F 42.8 °F 93% 29.85 in 10.0 mi NW 6.9 mph - N/A   Unknown
9:15 PM 44.6 °F 41.4 °F 42.8 °F 93% 29.86 in - WNW 5.8 mph - N/A   Unknown
9:35 PM 44.6 °F 42.2 °F 42.8 °F 93% 29.86 in 10.0 mi NW 4.6 mph - N/A   Overcast
9:55 PM 44.6 °F 40.7 °F 42.8 °F 93% 29.87 in 10.0 mi NW 6.9 mph - N/A   Overcast
10:15 PM 44.6 °F 42.2 °F 42.8 °F 93% 29.87 in 10.0 mi WNW 4.6 mph - N/A   Overcast
10:35 PM 44.6 °F 41.4 °F 42.8 °F 93% 29.86 in 10.0 mi WNW 5.8 mph - N/A   Overcast
10:55 PM 44.6 °F 42.2 °F 42.8 °F 93% 29.87 in - WNW 4.6 mph - N/A   Overcast
11:15 PM 44.6 °F 42.2 °F 42.8 °F 93% 29.87 in 10.0 mi WNW 4.6 mph - N/A   Overcast
11:35 PM 44.6 °F 43.1 °F 42.8 °F 93% 29.87 in 10.0 mi West 3.5 mph - N/A   Overcast
11:55 PM 44.6 °F 42.2 °F 42.8 °F 93% 29.87 in 10.0 mi West 4.6 mph - N/A   Overcast